Wind_Speed
14 16 16 15 12 11 12 15 17 19 19 17 14 11 11 11 9 8 8 7 6 4 3 2 4 8 12 12 12 11 10 9 10 12 13 13 14 15 16 16 14 13 12
12 14 15 14 12 11 11 13 15 16 18 19 16 12 11 11 9 8 8 8 7 6 5 3 2 6 13 15 14 13 11 11 10 11 12 12 13 14 16 17 16 15 14
9 11 13 14 13 11 10 12 13 15 18 19 18 14 12 11 10 9 9 9 9 7 6 6 4 3 8 13 15 14 12 10 10 10 10 8 8 9 12 14 17 18 17
5 7 10 12 12 12 10 10 11 14 17 18 18 15 13 12 11 10 11 12 12 9 7 7 5 3 4 10 13 12 11 9 8 7 6 5 4 5 7 9 12 16 17
1 3 7 9 10 11 10 9 9 11 14 16 17 15 14 14 14 13 12 13 13 12 8 6 6 3 1 7 12 13 12 10 8 5 3 3 3 5 5 5 6 11 14
3 2 3 6 8 9 9 8 7 8 11 14 16 16 15 14 15 14 12 12 12 11 10 6 5 5 2 5 11 14 13 11 9 6 4 5 5 5 6 5 4 5 9
5 4 1 3 5 7 7 6 6 6 8 11 14 17 17 16 16 16 15 13 12 10 9 7 6 5 4 3 9 13 15 14 11 8 8 7 7 7 7 7 6 5 6
5 5 3 0 3 5 6 6 5 4 4 7 10 14 16 17 17 17 17 16 14 11 9 7 6 5 5 1 5 10 13 13 11 10 8 9 9 9 9 9 8 6 6
6 7 6 3 1 2 4 5 5 4 3 4 6 9 11 13 15 15 16 17 16 13 10 8 5 3 2 1 3 6 8 10 9 8 7 6 6 5 6 10 11 8 6
6 8 8 6 4 3 2 3 5 5 6 6 7 7 7 9 10 12 14 16 16 14 10 7 6 3 2 3 4 5 7 7 5 4 5 5 4 3 1 3 7 6 5
7 8 10 10 8 7 5 5 4 5 7 9 9 8 7 6 8 8 10 12 13 13 11 8 6 6 6 6 7 7 7 7 6 6 6 6 5 4 2 2 2 3 4
7 8 10 11 11 11 9 8 7 8 8 9 10 10 8 6 6 7 8 9 11 12 12 10 8 7 8 9 9 9 9 10 10 9 9 9 8 7 6 5 4 4 5
8 8 10 11 13 13 11 9 9 10 11 11 11 11 10 9 7 8 8 9 9 11 12 12 11 9 8 9 11 12 13 13 12 12 12 12 12 11 10 9 8 7 6
9 9 9 11 12 13 13 12 11 12 13 14 14 14 13 12 9 9 10 10 10 11 11 12 12 11 9 8 11 14 16 16 16 16 16 16 16 16 15 14 13 11 10
15 12 10 10 12 13 14 15 14 15 15 16 16 16 16 15 13 11 12 14 13 14 12 11 11 9 11 11 10 13 17 20 22 22 21 21 21 21 20 20 19 17 15
20 16 14 13 14 16 17 17 17 18 17 17 17 18 17 16 15 14 15 18 18 16 15 15 15 12 10 11 11 13 17 21 24 25 25 25 25 25 24 24 23 22 20
22 20 18 17 18 20 21 20 19 18 17 15 16 17 17 17 17 17 17 19 19 17 16 20 22 20 15 11 11 14 17 20 22 25 25 25 25 24 24 23 22 21 20
23 23 21 19 20 21 20 18 15 14 14 14 14 16 17 18 19 19 19 20 19 19 20 23 24 23 19 15 13 15 19 21 23 25 25 24 23 22 22 22 20 19 19
23 24 24 22 20 20 20 18 16 15 15 15 14 15 18 19 20 20 20 20 20 21 23 25 25 24 22 19 18 18 21 23 23 24 25 24 24 23 23 24 23 21 20
25 26 27 26 23 21 22 22 20 18 17 16 15 17 20 21 21 20 21 21 21 24 26 27 26 25 25 25 23 22 23 24 24 23 24 24 24 24 24 25 25 24 23
27 27 28 29 28 24 23 23 21 19 18 18 17 19 20 22 21 20 21 22 23 26 29 28 26 26 27 28 28 26 25 25 25 24 24 24 25 24 23 25 25 23 24
29 29 30 32 33 29 26 24 21 19 19 19 20 21 23 24 22 21 22 24 26 27 27 27 26 26 28 29 30 29 27 26 24 24 25 25 25 25 23 23 24 23 24
29 30 31 34 36 35 31 27 24 23 22 21 21 22 24 25 24 24 25 26 26 26 26 26 26 26 26 28 29 29 28 28 25 26 28 26 26 25 24 23 24 23 23
31 32 33 36 38 38 33 28 26 24 23 22 23 24 25 26 26 25 26 26 25 24 24 24 25 25 26 27 27 27 27 27 28 25 26 26 26 26 24 25 24 23 23
37 37 38 39 40 41 36 30 26 24 23 23 24 26 27 27 26 26 26 25 23 22 23 24 25 26 27 27 26 27 27 26 27 22 21 23 25 26 25 25 26 25 24
40 42 42 43 43 44 40 33 28 24 23 25 27 27 27 27 26 26 25 22 21 22 23 24 26 26 26 26 26 27 28 28 27 23 22 23 25 25 25 25 26 27 25
Wind_Direction
56 53 50 54 63 65 60 59 58 53 47 43 41 44 45 50 60 59 45 43 45 27 354 296 238 220 215 217 222 217 216 221 221 227 236 240 240 238 235 234 236 239 243
51 49 45 48 61 69 61 54 53 48 44 41 40 45 48 51 55 57 49 36 27 20 16 6 305 229 221 222 222 216 216 227 234 238 240 234 234 238 238 239 239 239 241
47 46 41 44 55 64 63 56 51 46 42 40 41 46 49 53 52 49 49 40 29 24 23 17 2 290 229 219 213 211 210 222 235 238 226 207 209 215 222 236 239 235 234
40 45 42 41 49 56 59 55 50 45 39 38 40 47 51 51 46 39 38 35 33 28 21 18 9 352 221 208 210 212 208 215 232 233 217 193 196 207 223 241 231 222 224
346 35 46 43 46 50 53 53 49 45 39 35 36 44 49 48 44 38 32 28 28 28 23 16 10 4 280 216 216 219 216 218 232 237 232 209 223 243 250 250 217 210 218
252 263 44 47 47 45 47 51 49 44 38 34 36 41 43 42 40 38 35 29 24 25 29 23 14 15 4 225 222 222 219 218 227 240 252 241 239 255 246 239 229 206 215
240 245 238 55 51 42 40 44 44 41 37 34 37 40 42 40 39 40 39 34 28 24 26 30 23 19 14 242 223 222 219 218 227 245 260 248 242 249 243 234 227 211 211
248 247 232 181 56 44 36 35 29 22 26 24 30 38 42 42 40 40 41 40 37 27 19 21 22 20 23 17 206 213 215 218 235 252 257 249 245 255 256 234 208 201 210
264 252 237 238 262 19 29 30 21 356 341 350 5 24 38 42 41 39 38 38 37 31 21 11 3 3 18 77 163 187 203 216 236 254 250 238 231 237 248 230 205 193 203
272 259 245 241 246 258 296 358 13 355 328 321 332 352 14 32 39 40 36 33 32 30 23 3 340 305 244 204 195 198 200 206 215 217 202 198 203 191 150 194 187 188 210
284 268 254 247 248 252 261 280 314 335 332 325 324 330 341 7 22 27 30 28 26 23 21 7 330 298 264 233 214 208 208 209 211 201 198 209 218 211 190 185 183 208 228
288 275 263 255 256 256 259 274 290 303 314 322 322 319 321 337 360 5 8 13 18 18 15 12 352 309 281 260 238 220 216 225 235 234 232 234 234 233 230 233 229 227 235
298 285 274 267 263 261 259 267 285 295 300 306 311 313 314 316 329 345 353 358 2 9 15 11 5 343 301 273 254 237 226 229 237 244 247 245 242 242 242 241 243 245 244
300 294 288 279 270 264 260 262 275 287 294 296 299 304 306 310 312 322 334 346 350 352 7 10 8 359 333 292 263 249 239 233 235 240 243 245 247 249 251 251 248 249 251
300 293 293 290 277 268 264 265 270 279 290 295 297 301 304 305 304 305 312 322 326 332 346 350 352 353 346 322 283 257 247 240 237 239 241 244 248 252 255 256 256 255 256
299 291 287 285 277 272 269 270 275 281 286 292 296 299 300 302 302 297 302 313 314 317 328 336 336 335 331 323 293 262 250 246 242 241 242 245 248 251 253 255 257 258 256
294 287 283 281 276 273 271 271 275 279 280 283 289 294 296 296 300 298 301 308 306 304 313 321 321 319 315 307 296 271 255 251 250 248 245 244 246 247 248 250 252 254 253
287 283 280 276 275 275 274 272 269 268 273 280 288 294 293 291 296 296 298 299 294 292 301 306 306 304 304 300 293 276 261 253 251 251 248 244 242 242 241 241 245 250 250
274 275 276 274 273 274 273 271 270 269 273 279 286 290 286 284 285 286 285 286 281 282 290 295 295 293 294 297 291 279 267 257 252 249 246 245 241 237 238 240 244 246 245
260 262 268 270 268 267 268 270 269 265 266 269 274 281 280 275 273 272 273 275 274 278 283 288 289 287 290 292 290 281 273 264 254 249 246 247 242 237 238 241 242 242 240
250 252 259 264 264 261 261 262 259 258 259 263 271 277 275 271 267 265 269 269 272 278 281 282 283 285 287 287 285 279 274 270 260 250 247 245 242 239 239 240 240 239 237
246 245 253 260 262 256 249 248 248 253 258 265 272 275 273 269 266 264 266 268 273 277 277 278 282 284 283 283 281 280 276 268 262 254 248 245 241 240 239 240 238 235 236
244 242 249 256 259 253 242 237 238 245 253 259 264 266 265 266 268 269 270 271 273 275 275 277 281 283 282 280 279 277 273 266 263 260 248 244 243 241 240 238 235 234 235
241 241 245 251 255 251 242 235 236 238 245 252 257 257 259 263 268 273 275 277 277 276 276 278 280 282 283 283 281 276 270 268 264 269 249 242 243 242 240 236 232 232 233
244 244 244 247 251 249 243 237 234 234 240 248 255 258 260 263 268 273 276 281 283 282 283 282 281 283 285 283 278 271 269 271 265 269 257 245 244 243 240 236 231 233 233
246 246 243 244 246 247 244 238 231 233 240 248 255 260 263 266 271 274 278 287 293 294 291 287 285 288 287 282 276 269 267 269 268 267 263 249 244 241 239 234 230 233 236
Height
5893 5893 5893 5892 5891 5891 5891 5890 5889 5888 5887 5886 5885 5885 5884 5884 5884 5883 5883 5883 5883 5882 5882 5883 5883 5883 5885 5886 5887 5889 5891 5892 5894 5895 5897 5899 5900 5902 5904 5906 5908 5910 5912
5894 5894 5894 5893 5892 5892 5892 5892 5891 5889 5888 5887 5886 5886 5885 5885 5885 5884 5884 5883 5883 5883 5882 5882 5882 5882 5883 5884 5886 5888 5890 5892 5893 5894 5895 5897 5899 5901 5902 5904 5906 5908 5910
5895 5895 5895 5893 5893 5893 5893 5893 5892 5891 5890 5889 5888 5887 5886 5886 5885 5885 5884 5884 5883 5883 5882 5882 5881 5881 5881 5882 5885 5887 5889 5890 5892 5893 5894 5895 5897 5899 5900 5902 5903 5905 5907
5896 5896 5896 5895 5894 5893 5893 5893 5893 5893 5891 5890 5889 5888 5887 5886 5886 5886 5885 5885 5884 5883 5882 5881 5881 5880 5880 5882 5885 5886 5888 5889 5891 5892 5894 5895 5896 5898 5899 5900 5900 5902 5904
5896 5896 5896 5896 5895 5894 5894 5894 5894 5893 5893 5891 5890 5889 5888 5887 5886 5886 5885 5884 5883 5883 5882 5882 5881 5880 5880 5881 5884 5886 5888 5889 5891 5892 5894 5895 5896 5897 5898 5898 5899 5900 5902
5895 5896 5896 5896 5896 5895 5895 5895 5894 5894 5894 5893 5891 5890 5888 5887 5886 5886 5885 5884 5883 5883 5882 5882 5882 5881 5880 5880 5882 5884 5887 5889 5890 5891 5893 5894 5895 5896 5897 5898 5898 5899 5901
5895 5895 5896 5896 5895 5895 5895 5895 5895 5895 5895 5894 5893 5891 5890 5888 5887 5886 5885 5884 5884 5883 5883 5882 5882 5881 5880 5880 5881 5883 5886 5888 5890 5891 5892 5893 5894 5895 5896 5897 5898 5899 5900
5894 5895 5895 5895 5895 5895 5895 5895 5895 5895 5895 5894 5893 5892 5891 5889 5888 5887 5886 5885 5884 5883 5883 5882 5881 5881 5881 5880 5881 5883 5885 5887 5889 5890 5890 5891 5893 5894 5894 5896 5897 5898 5899
5893 5894 5895 5895 5895 5895 5895 5895 5895 5895 5895 5894 5893 5892 5891 5890 5889 5887 5886 5885 5883 5883 5882 5881 5881 5881 5881 5881 5881 5883 5885 5887 5889 5889 5889 5890 5891 5892 5893 5894 5896 5897 5898
5893 5893 5894 5895 5895 5895 5895 5895 5894 5894 5894 5894 5893 5893 5891 5890 5889 5888 5886 5885 5883 5882 5881 5880 5880 5880 5880 5880 5881 5882 5884 5886 5887 5888 5888 5890 5891 5892 5893 5893 5894 5896 5897
5892 5892 5893 5894 5894 5894 5894 5894 5894 5893 5894 5894 5894 5893 5892 5890 5889 5888 5886 5884 5883 5881 5881 5880 5879 5879 5879 5879 5880 5881 5883 5884 5886 5887 5888 5889 5891 5892 5892 5894 5894 5895 5896
5891 5891 5891 5892 5892 5893 5893 5894 5893 5893 5892 5892 5892 5892 5891 5890 5889 5887 5885 5884 5882 5881 5880 5879 5879 5878 5878 5879 5879 5880 5882 5884 5885 5886 5888 5889 5890 5891 5892 5893 5893 5894 5895
5890 5889 5889 5889 5890 5891 5892 5892 5892 5892 5891 5891 5890 5890 5890 5889 5888 5887 5885 5883 5882 5881 5880 5879 5879 5878 5877 5878 5878 5879 5880 5882 5883 5884 5886 5887 5888 5889 5890 5891 5891 5892 5893
5888 5887 5886 5887 5888 5889 5890 5890 5890 5890 5889 5889 5889 5889 5889 5888 5887 5886 5884 5883 5881 5880 5879 5878 5877 5877 5876 5876 5877 5877 5878 5879 5880 5881 5882 5884 5886 5887 5888 5888 5889 5890 5890
5886 5885 5884 5884 5885 5887 5888 5888 5887 5887 5887 5887 5887 5887 5886 5886 5886 5885 5883 5881 5880 5878 5878 5877 5875 5875 5874 5873 5874 5876 5876 5876 5877 5878 5878 5879 5881 5883 5884 5885 5886 5887 5888
5884 5883 5883 5882 5882 5883 5884 5885 5885 5885 5885 5885 5884 5884 5883 5883 5882 5882 5880 5879 5878 5876 5875 5874 5873 5873 5872 5871 5871 5872 5873 5873 5874 5874 5875 5875 5876 5878 5879 5881 5882 5883 5884
5881 5881 5880 5880 5880 5879 5880 5881 5881 5881 5881 5881 5881 5880 5879 5879 5879 5879 5878 5876 5875 5873 5871 5871 5869 5868 5869 5868 5868 5869 5869 5869 5870 5870 5870 5870 5871 5872 5874 5876 5878 5879 5880
5876 5877 5876 5876 5876 5876 5876 5876 5876 5877 5877 5877 5877 5876 5876 5875 5875 5875 5874 5873 5871 5870 5868 5867 5866 5864 5864 5864 5864 5864 5864 5864 5864 5865 5865 5865 5866 5867 5869 5871 5873 5875 5876
5872 5873 5872 5872 5872 5872 5872 5872 5873 5873 5873 5873 5873 5872 5871 5870 5870 5870 5869 5867 5866 5865 5864 5862 5861 5860 5859 5859 5859 5859 5859 5858 5859 5860 5861 5861 5861 5862 5864 5866 5868 5870 5871
5866 5868 5868 5867 5868 5868 5868 5867 5868 5868 5868 5868 5868 5867 5866 5865 5865 5864 5864 5862 5861 5860 5859 5857 5856 5855 5855 5854 5854 5853 5852 5852 5853 5854 5855 5856 5856 5857 5859 5861 5863 5864 5866
5860 5861 5862 5863 5863 5863 5862 5861 5861 5862 5862 5863 5863 5862 5861 5860 5860 5859 5859 5858 5857 5856 5854 5853 5851 5851 5850 5849 5849 5848 5846 5846 5847 5848 5850 5851 5852 5853 5854 5856 5858 5859 5861
5852 5853 5855 5856 5856 5855 5854 5853 5854 5856 5857 5857 5857 5856 5855 5855 5855 5854 5854 5853 5852 5850 5848 5847 5846 5845 5844 5843 5842 5842 5841 5841 5841 5842 5844 5845 5846 5848 5849 5851 5852 5854 5857
5844 5846 5848 5848 5848 5846 5845 5845 5846 5848 5850 5851 5851 5850 5850 5850 5850 5849 5848 5847 5845 5844 5843 5842 5841 5839 5838 5837 5836 5835 5834 5834 5835 5837 5838 5839 5840 5842 5844 5845 5847 5849 5852
5836 5837 5839 5841 5840 5839 5837 5837 5838 5840 5843 5844 5844 5844 5844 5844 5843 5843 5843 5841 5839 5838 5837 5836 5835 5833 5831 5830 5829 5829 5828 5828 5829 5830 5831 5833 5835 5836 5838 5840 5842 5845 5847
5827 5828 5830 5832 5832 5831 5831 5831 5832 5834 5836 5837 5837 5838 5838 5838 5838 5837 5837 5835 5834 5833 5832 5830 5829 5827 5825 5824 5823 5822 5822 5822 5823 5824 5826 5828 5829 5831 5833 5835 5838 5841 5843
5817 5818 5821 5823 5823 5824 5825 5826 5826 5827 5829 5830 5831 5832 5832 5832 5831 5831 5830 5830 5829 5827 5825 5824 5823 5821 5819 5817 5817 5816 5817 5817 5818 5819 5821 5822 5824 5826 5828 5830 5832 5835 5838